| time (UTC) | temp C | wind direction | speed KPH | gust KPH | rain 1hr cm | rain 24hr cm | rain mn cm | humidity % | barometer mb |
| 20260508184556 | 13 | 136 | 20.9 | 32.2 | 0.00 | 0.00 | 0.00 | 47 | 1015.9 |
| 20260508183102 | 13 | 123 | 4.8 | 22.5 | 0.00 | 0.00 | 0.00 | 46 | 1016.0 |
| 20260508181556 | 13 | 130 | 8.0 | 24.1 | 0.00 | 0.00 | 0.00 | 46 | 1016.2 |
| 20260508180114 | 12 | 44 | 8.0 | 24.1 | 0.00 | 0.00 | 0.00 | 48 | 1016.3 |
| 20260508174611 | 12 | 130 | 12.9 | 25.7 | 0.00 | 0.00 | 0.00 | 52 | 1016.3 |
| 20260508173055 | 12 | 110 | 14.5 | 22.5 | 0.00 | 0.00 | 0.00 | 49 | 1016.6 |
| 20260508171556 | 12 | 161 | 14.5 | 24.1 | 0.00 | 0.00 | 0.00 | 48 | 1016.8 |
| 20260508170056 | 12 | 130 | 19.3 | 30.6 | 0.00 | 0.00 | 0.00 | 46 | 1016.9 |
| 20260508164604 | 12 | 74 | 12.9 | 24.1 | 0.00 | 0.00 | 0.00 | 43 | 1017.1 |
| 20260508163054 | 12 | 183 | 9.7 | 22.5 | 0.00 | 0.00 | 0.00 | 40 | 1017.1 |
| 20260508161556 | 11 | 111 | 11.3 | 19.3 | 0.00 | 0.00 | 0.00 | 44 | 1017.3 |
| 20260508160056 | 11 | 125 | 6.4 | 22.5 | 0.00 | 0.00 | 0.00 | 43 | 1017.5 |
| 20260508154554 | 11 | 97 | 9.7 | 24.1 | 0.00 | 0.00 | 0.00 | 46 | 1017.6 |
| 20260508153055 | 11 | 83 | 9.7 | 20.9 | 0.00 | 0.00 | 0.00 | 48 | 1017.7 |
| 20260508151557 | 11 | 114 | 12.9 | 24.1 | 0.00 | 0.00 | 0.00 | 53 | 1017.7 |
| 20260508150455 | 10 | 134 | 9.7 | 24.1 | 0.00 | 0.00 | 0.00 | 52 | 1017.7 |
| 20260508144556 | 11 | 178 | 6.4 | 24.1 | 0.00 | 0.00 | 0.00 | 53 | 1017.7 |
| 20260508143109 | 10 | 57 | 11.3 | 20.9 | 0.00 | 0.00 | 0.00 | 50 | 1017.7 |
| 20260508141554 | 11 | 109 | 9.7 | 17.7 | 0.00 | 0.00 | 0.00 | 47 | 1017.7 |
| 20260508140106 | 11 | 99 | 6.4 | 12.9 | 0.00 | 0.00 | 0.00 | 48 | 1017.7 |
| 20260508134607 | 11 | 87 | 3.2 | 12.9 | 0.00 | 0.00 | 0.00 | 46 | 1017.6 |
| 20260508133054 | 10 | 0 | 4.8 | 12.9 | 0.00 | 0.00 | 0.00 | 44 | 1017.5 |
| 20260508131559 | 9 | 15 | 3.2 | 8.0 | 0.00 | 0.00 | 0.00 | 52 | 1017.4 |
| 20260508130057 | 8 | 17 | 3.2 | 8.0 | 0.00 | 0.00 | 0.00 | 58 | 1017.4 |
| 20260508124558 | 7 | 351 | 4.8 | 9.7 | 0.00 | 0.00 | 0.00 | 60 | 1017.3 |
| 20260508123059 | 7 | 342 | 3.2 | 11.3 | 0.00 | 0.00 | 0.00 | 62 | 1017.2 |
| 20260508121557 | 6 | 340 | 4.8 | 9.7 | 0.00 | 0.00 | 0.00 | 67 | 1017.2 |
| 20260508120056 | 6 | 343 | 4.8 | 12.9 | 0.00 | 0.00 | 0.00 | 72 | 1016.9 |
| 20260508114609 | 5 | 304 | 3.2 | 12.9 | 0.00 | 0.05 | 0.00 | 76 | 1016.5 |
| 20260508113103 | 5 | 338 | 3.2 | 11.3 | 0.00 | 0.05 | 0.00 | 76 | 1016.2 |
| 20260508111612 | 4 | 346 | 4.8 | 8.0 | 0.00 | 0.05 | 0.00 | 76 | 1016.0 |
| 20260508110059 | 4 | 344 | 3.2 | 9.7 | 0.00 | 0.05 | 0.00 | 75 | 1015.7 |
| 20260508104559 | 4 | 344 | 4.8 | 14.5 | 0.00 | 0.13 | 0.00 | 76 | 1015.7 |
| 20260508103053 | 4 | 328 | 3.2 | 14.5 | 0.00 | 0.13 | 0.00 | 76 | 1015.1 |
| 20260508101557 | 4 | 299 | 6.4 | 16.1 | 0.00 | 0.13 | 0.00 | 77 | 1014.9 |
| 20260508100100 | 4 | 306 | 4.8 | 17.7 | 0.00 | 0.13 | 0.00 | 77 | 1014.7 |
| 20260508094602 | 4 | 316 | 3.2 | 19.3 | 0.00 | 0.13 | 0.00 | 77 | 1014.5 |
| 20260508093105 | 4 | 296 | 9.7 | 20.9 | 0.00 | 0.13 | 0.00 | 77 | 1014.5 |
| 20260508091608 | 4 | 276 | 8.0 | 16.1 | 0.00 | 0.13 | 0.00 | 81 | 1014.6 |
| 20260508090111 | 4 | 297 | 6.4 | 14.5 | 0.00 | 0.13 | 0.00 | 81 | 1014.5 |
| 20260508084558 | 4 | 263 | 6.4 | 17.7 | 0.00 | 0.13 | 0.00 | 80 | 1014.3 |
| 20260508083107 | 5 | 277 | 8.0 | 19.3 | 0.00 | 0.13 | 0.00 | 80 | 1014.4 |
| 20260508081604 | 5 | 277 | 8.0 | 20.9 | 0.00 | 0.13 | 0.00 | 81 | 1014.3 |
| 20260508074603 | 5 | 267 | 12.9 | 27.4 | 0.00 | 0.13 | 0.00 | 81 | 1014.2 |
| 20260508073055 | 5 | 344 | 14.5 | 32.2 | 0.00 | 0.13 | 0.00 | 81 | 1013.9 |
| 20260508071600 | 5 | 289 | 12.9 | 27.4 | 0.00 | 0.13 | 0.00 | 82 | 1013.8 |
| 20260508070057 | 5 | 299 | 14.5 | 33.8 | 0.00 | 0.13 | 0.00 | 82 | 1013.6 |
| 20260508064556 | 6 | 290 | 16.1 | 30.6 | 0.00 | 0.13 | 0.00 | 82 | 1013.7 |
| 20260508063103 | 6 | 289 | 12.9 | 32.2 | 0.00 | 0.13 | 0.00 | 84 | 1013.6 |
| 20260508061601 | 6 | 252 | 9.7 | 27.4 | 0.00 | 0.13 | 0.00 | 84 | 1013.7 |
| 20260508060055 | 6 | 294 | 12.9 | 35.4 | 0.00 | 0.13 | 0.00 | 84 | 1013.7 |
| 20260508054555 | 6 | 355 | 12.9 | 33.8 | 0.00 | 0.13 | 0.00 | 84 | 1013.8 |
| 20260508053106 | 6 | 360 | 12.9 | 38.6 | 0.00 | 0.13 | 0.00 | 83 | 1014.0 |
| 20260508051606 | 6 | 301 | 16.1 | 30.6 | 0.00 | 0.13 | 0.00 | 83 | 1014.2 |
| 20260508050058 | 6 | 304 | 12.9 | 30.6 | 0.00 | 0.13 | 0.00 | 83 | 1014.0 |
| 20260508044555 | 6 | 270 | 11.3 | 29.0 | 0.00 | 0.15 | 0.00 | 84 | 1013.6 |
| 20260508043056 | 6 | 274 | 11.3 | 27.4 | 0.00 | 0.15 | 0.00 | 85 | 1013.7 |
| 20260508041555 | 6 | 329 | 9.7 | 25.7 | 0.00 | 0.15 | 0.00 | 86 | 1013.7 |
| 20260508040057 | 6 | 290 | 8.0 | 22.5 | 0.00 | 0.15 | 0.00 | 86 | 1014.0 |
| 20260508034555 | 6 | 278 | 8.0 | 20.9 | 0.00 | 0.15 | 0.15 | 86 | 1014.2 |
| 20260508033101 | 6 | 299 | 8.0 | 20.9 | 0.00 | 0.15 | 0.15 | 85 | 1014.2 |
| 20260508031556 | 6 | 259 | 8.0 | 20.9 | 0.00 | 0.15 | 0.15 | 85 | 1014.4 |
| 20260508030055 | 6 | 273 | 8.0 | 22.5 | 0.00 | 0.15 | 0.15 | 86 | 1014.2 |
| 20260508024604 | 6 | 266 | 6.4 | 22.5 | 0.00 | 0.15 | 0.15 | 86 | 1014.0 |
| 20260508023056 | 6 | 273 | 8.0 | 30.6 | 0.00 | 0.15 | 0.15 | 86 | 1013.8 |
| 20260508021606 | 6 | 306 | 8.0 | 22.5 | 0.00 | 0.15 | 0.15 | 86 | 1013.8 |
| 20260508020058 | 6 | 258 | 6.4 | 17.7 | 0.00 | 0.15 | 0.15 | 87 | 1013.6 |
| 20260508014558 | 6 | 303 | 9.7 | 20.9 | 0.00 | 0.25 | 0.15 | 87 | 1013.6 |
| 20260508013054 | 6 | 281 | 8.0 | 22.5 | 0.00 | 0.25 | 0.15 | 86 | 1013.4 |
| 20260508011609 | 6 | 288 | 8.0 | 22.5 | 0.00 | 0.25 | 0.15 | 86 | 1013.2 |
| 20260508010058 | 7 | 348 | 8.0 | 24.1 | 0.00 | 0.25 | 0.15 | 85 | 1013.0 |
| 20260508004600 | 7 | 340 | 12.9 | 25.7 | 0.00 | 0.25 | 0.15 | 84 | 1012.9 |
| 20260508003056 | 7 | 5 | 9.7 | 24.1 | 0.00 | 0.25 | 0.15 | 84 | 1012.7 |
| 20260508001556 | 7 | 305 | 9.7 | 30.6 | 0.00 | 0.25 | 0.15 | 84 | 1012.6 |
| 20260508000100 | 7 | 279 | 9.7 | 29.0 | 0.00 | 0.25 | 0.15 | 84 | 1012.4 |
| 20260507234559 | 7 | 277 | 9.7 | 38.6 | 0.00 | 0.38 | 0.15 | 83 | 1012.4 |
| 20260507233056 | 7 | 287 | 12.9 | 29.0 | 0.00 | 0.38 | 0.15 | 84 | 1012.4 |
| 20260507231600 | 7 | 342 | 11.3 | 25.7 | 0.00 | 0.38 | 0.15 | 84 | 1012.3 |
| 20260507230058 | 7 | 252 | 14.5 | 32.2 | 0.00 | 0.38 | 0.15 | 87 | 1012.2 |
| 20260507224559 | 8 | 272 | 17.7 | 33.8 | 0.00 | 0.43 | 0.15 | 87 | 1012.1 |
| 20260507223058 | 7 | 302 | 16.1 | 33.8 | 0.00 | 0.43 | 0.15 | 89 | 1011.9 |
| 20260507221558 | 7 | 261 | 11.3 | 27.4 | 0.00 | 0.43 | 0.15 | 89 | 1011.8 |
| 20260507220059 | 8 | 324 | 11.3 | 32.2 | 0.00 | 0.43 | 0.15 | 89 | 1011.7 |
| 20260507214559 | 8 | 250 | 11.3 | 29.0 | 0.00 | 0.43 | 0.15 | 88 | 1011.8 |
| 20260507213059 | 10 | 279 | 11.3 | 20.9 | 0.00 | 0.43 | 0.15 | 88 | 1011.7 |
| 20260507211559 | 10 | 299 | 8.0 | 22.5 | 0.00 | 0.43 | 0.15 | 87 | 1011.6 |
| 20260507210103 | 10 | 290 | 8.0 | 20.9 | 0.00 | 0.43 | 0.15 | 87 | 1011.6 |
| 20260507204556 | 10 | 290 | 3.2 | 14.5 | 0.00 | 0.43 | 0.15 | 87 | 1011.5 |
| 20260507203057 | 11 | 334 | 6.4 | 22.5 | 0.00 | 0.43 | 0.15 | 86 | 1011.4 |
| 20260507201610 | 11 | 290 | 9.7 | 20.9 | 0.00 | 0.43 | 0.15 | 85 | 1011.5 |
| 20260507200057 | 12 | 21 | 6.4 | 22.5 | 0.00 | 0.43 | 0.15 | 85 | 1011.2 |
| 20260507194556 | 12 | 321 | 6.4 | 17.7 | 0.00 | 0.43 | 0.15 | 85 | 1011.4 |
| 20260507193057 | 12 | 337 | 4.8 | 20.9 | 0.00 | 0.43 | 0.15 | 85 | 1011.3 |
| 20260507191556 | 12 | 317 | 11.3 | 24.1 | 0.00 | 0.43 | 0.15 | 83 | 1011.2 |